DELTA 1 DEB, 10717

Orbit data source: Space-Track

DELTA 1 DEB, 10717 is space debris in SSO originally from a launch on Thu, 29 Jul 1976 UTC launched from the Air Force Western Test Range (AFWTR). Debris objects in space refer to the collection of defunct objects orbiting the Earth. Examples of debris include non-operational satellites, rocket bodies, and fragments generated from explosions, collisions, or faulty payload assembly.

Loading next visibility...
Identifier
10717, 1976-077AN
Orbit
SSO
Country
Flag of USUS
Related business
Manufacturer
Unknown
Mission
Spacecraft
Bus & Motor
Unknown
Mass
Unknown
Launch date (UTC)
1976-07-29 (50 years ago)
Launch vehicle
Unknown
Launch site
Air Force Western Test Range (AFWTR)
Object type
Payload
Rocket body
Debris
Shape & HBR
Unknown shape, 0.1 m
Radar Cross Section
Medium (>0.1 m² and <1 m²)

Expand to show TLE details & history
Last TLE update: 2 days ago

TLE from 2 days ago
0 DELTA 1 DEB
1 10717U 76077AN  26171.46792170 -.00000016  00000-0  28063-3 0  9996
2 10717 102.6480 156.8842 0099289 295.7427 218.4302 12.23333262228139
Epoch: 2026-06-20T11:13Z
TLE epoch observation values (Epoch: 2026-06-20T11:13:48.434Z)
Latitude
25.86751°
Longitude
-94.03322°
Altitude
1,643.024 km
Speed
7.025 km/s
True Right ascension
22h 52m 24s
True Declination
25° 44' 51"
Sunlit
Object was in daylight at epoch
Visualization orbit readout
Latitude
Unknown
Longitude
Unknown
Altitude
Unknown
Speed
Unknown
Apparent Right ascension
Unknown
Apparent Declination
Unknown
Sunlit
N/A
Visualization observer readout
Local Sidereal Time
05:24:42
Azimuth
Unknown
Elevation
Unknown
Doppler factor
Unknown
Orbital elements
Apogee altitude
1,654.664 km
Perigee altitude
1,496.719 km
Semi-major axis
7,953.829 km
Eccentricity
0.00993
Inclination
102.648°
RAAN
156.8842°
Arg. of periapsis
295.7427°
True anomaly
217.72984°
Mean anomaly
218.4302°
Eccentric anomaly
218.07934°
Mean motion
3.0597 °/min
Orbital period
117.66 mins
BSTAR
0.00028063
Loading maneuver chart data...
Computing Atmospheric mass density...
Loading historical data...
Loading historical data...
Loading historical data...
Loading historical data...
Loading historical data...
Loading historical data...
Loading historical data...

Documentation

Showing up to 5 results
|